Time,TemperatureF,DewpointF,PressureIn,WindDirection,WindDirectionDegrees,WindSpeedMPH,WindSpeedGustMPH,Humidity,HourlyPrecipIn,Conditions,Clouds,dailyrainin,SoftwareType,DateUTC
2013-10-03 00:07:00,75.3,69.0,29.83,SE,132,0.0,0.0,80,0.00,,,0.00,weatherlink.com 1.10,2013-10-03 05:07:00,
2013-10-03 00:22:00,75.0,69.0,29.83,SSE,151,0.0,0.0,81,0.00,,,0.00,weatherlink.com 1.10,2013-10-03 05:22:00,
2013-10-03 00:37:00,75.1,69.0,29.82,SSE,153,0.0,0.0,81,0.00,,,0.00,weatherlink.com 1.10,2013-10-03 05:37:00,
2013-10-03 00:52:00,74.9,69.0,29.82,SSE,155,0.0,0.0,81,0.00,,,0.00,weatherlink.com 1.10,2013-10-03 05:52:00,
2013-10-03 01:07:00,74.8,69.0,29.82,SE,145,0.0,0.0,82,0.00,,,0.00,weatherlink.com 1.10,2013-10-03 06:07:00,
2013-10-03 01:22:00,74.5,69.0,29.81,SE,142,0.0,0.0,82,0.00,,,0.00,weatherlink.com 1.10,2013-10-03 06:22:00,
2013-10-03 01:37:00,74.1,69.0,29.81,SE,128,0.0,0.0,83,0.00,,,0.00,weatherlink.com 1.10,2013-10-03 06:37:00,
2013-10-03 01:52:00,73.9,69.0,29.81,SSE,148,0.0,0.0,84,0.00,,,0.00,weatherlink.com 1.10,2013-10-03 06:52:00,
2013-10-03 02:07:00,73.7,69.0,29.81,SSE,154,0.0,0.0,84,0.00,,,0.00,weatherlink.com 1.10,2013-10-03 07:07:00,
2013-10-03 02:22:00,73.7,69.0,29.81,SE,146,0.0,0.0,84,0.00,,,0.00,weatherlink.com 1.10,2013-10-03 07:22:00,
2013-10-03 02:38:00,73.7,69.0,29.81,SSE,163,0.0,0.0,84,0.00,,,0.00,weatherlink.com 1.10,2013-10-03 07:38:00,
2013-10-03 02:52:00,73.6,69.0,29.81,SSE,154,0.0,0.0,84,0.00,,,0.00,weatherlink.com 1.10,2013-10-03 07:52:00,
2013-10-03 03:08:00,73.6,69.0,29.80,SSE,160,0.0,0.0,84,0.00,,,0.00,weatherlink.com 1.10,2013-10-03 08:08:00,
2013-10-03 03:22:00,73.6,69.0,29.80,SSE,159,0.0,0.0,84,0.00,,,0.00,weatherlink.com 1.10,2013-10-03 08:22:00,
2013-10-03 03:52:00,73.1,69.0,29.80,SSE,148,0.0,0.0,86,0.00,,,0.00,weatherlink.com 1.10,2013-10-03 08:52:00,
2013-10-03 04:07:00,72.9,69.0,29.80,SE,139,0.0,0.0,87,0.00,,,0.00,weatherlink.com 1.10,2013-10-03 09:07:00,
2013-10-03 04:22:00,73.2,69.0,29.80,SSE,151,0.0,0.0,87,0.00,,,0.00,weatherlink.com 1.10,2013-10-03 09:22:00,
2013-10-03 04:37:00,73.6,70.0,29.80,SSE,167,0.0,0.0,88,0.00,,,0.00,weatherlink.com 1.10,2013-10-03 09:37:00,
2013-10-03 04:52:00,73.8,70.0,29.80,South,182,0.0,0.0,88,0.00,,,0.00,weatherlink.com 1.10,2013-10-03 09:52:00,
2013-10-03 05:07:00,73.9,70.0,29.80,SSW,196,0.0,0.0,88,0.00,,,0.00,weatherlink.com 1.10,2013-10-03 10:07:00,
2013-10-03 05:22:00,73.9,71.0,29.81,SSE,165,0.0,0.0,89,0.00,,,0.00,weatherlink.com 1.10,2013-10-03 10:22:00,
2013-10-03 05:37:00,73.9,71.0,29.81,SSW,192,0.0,0.0,89,0.00,,,0.00,weatherlink.com 1.10,2013-10-03 10:37:00,
2013-10-03 05:52:00,74.1,71.0,29.81,South,169,0.0,0.0,89,0.00,,,0.00,weatherlink.com 1.10,2013-10-03 10:52:00,
2013-10-03 06:07:00,74.2,71.0,29.81,SSW,205,0.0,0.0,89,0.00,,,0.00,weatherlink.com 1.10,2013-10-03 11:07:00,
2013-10-03 06:22:00,74.4,71.0,29.81,South,172,0.0,0.0,89,0.00,,,0.00,weatherlink.com 1.10,2013-10-03 11:22:00,
2013-10-03 06:37:00,74.5,71.0,29.81,South,184,0.0,0.0,89,0.00,,,0.00,weatherlink.com 1.10,2013-10-03 11:37:00,
2013-10-03 06:52:00,74.6,71.0,29.81,SSW,210,0.0,0.0,89,0.00,,,0.00,weatherlink.com 1.10,2013-10-03 11:52:00,
2013-10-03 07:07:00,74.7,71.0,29.81,South,173,0.0,0.0,89,0.00,,,0.00,weatherlink.com 1.10,2013-10-03 12:07:00,
2013-10-03 07:22:00,74.9,72.0,29.82,SSE,151,0.0,0.0,89,0.00,,,0.00,weatherlink.com 1.10,2013-10-03 12:22:00,
2013-10-03 07:37:00,75.0,71.0,29.82,South,188,0.0,0.0,88,0.00,,,0.00,weatherlink.com 1.10,2013-10-03 12:37:00,
2013-10-03 07:52:00,75.1,71.0,29.82,SSE,161,0.0,0.0,88,0.00,,,0.00,weatherlink.com 1.10,2013-10-03 12:52:00,
2013-10-03 08:08:00,75.2,72.0,29.82,South,188,0.0,0.0,88,0.00,,,0.00,weatherlink.com 1.10,2013-10-03 13:08:00,
2013-10-03 08:23:00,75.5,71.0,29.82,SSE,153,0.0,0.0,87,0.00,,,0.00,weatherlink.com 1.10,2013-10-03 13:23:00,
2013-10-03 08:38:00,75.6,72.0,29.83,SSE,162,0.0,0.0,87,0.00,,,0.00,weatherlink.com 1.10,2013-10-03 13:38:00,
2013-10-03 08:53:00,76.2,72.0,29.83,SSE,152,0.0,0.0,86,0.00,,,0.00,weatherlink.com 1.10,2013-10-03 13:53:00,
2013-10-03 09:08:00,76.7,72.0,29.84,SSE,163,0.0,0.0,85,0.00,,,0.00,weatherlink.com 1.10,2013-10-03 14:08:00,
2013-10-03 09:23:00,77.3,72.0,29.83,South,177,0.0,0.0,84,0.00,,,0.00,weatherlink.com 1.10,2013-10-03 14:23:00,
2013-10-03 09:38:00,77.6,72.0,29.83,South,179,0.0,0.0,83,0.00,,,0.00,weatherlink.com 1.10,2013-10-03 14:38:00,
2013-10-03 09:53:00,78.7,73.0,29.84,SSE,161,0.0,0.0,82,0.00,,,0.00,weatherlink.com 1.10,2013-10-03 14:53:00,
2013-10-03 10:08:00,79.1,72.0,29.84,SSW,204,0.0,0.0,80,0.00,,,0.00,weatherlink.com 1.10,2013-10-03 15:08:00,
2013-10-03 10:23:00,80.2,72.0,29.83,SSW,192,0.0,0.0,77,0.00,,,0.00,weatherlink.com 1.10,2013-10-03 15:23:00,
2013-10-03 10:38:00,80.2,72.0,29.83,SSE,167,0.0,0.0,77,0.00,,,0.00,weatherlink.com 1.10,2013-10-03 15:38:00,
2013-10-03 10:53:00,81.3,72.0,29.83,South,184,0.0,0.0,74,0.00,,,0.00,weatherlink.com 1.10,2013-10-03 15:53:00,
2013-10-03 11:08:00,81.8,72.0,29.83,South,180,0.0,0.0,73,0.00,,,0.00,weatherlink.com 1.10,2013-10-03 16:08:00,
2013-10-03 11:23:00,82.8,73.0,29.83,South,184,0.0,0.0,71,0.00,,,0.00,weatherlink.com 1.10,2013-10-03 16:23:00,
2013-10-03 11:38:00,83.2,72.0,29.83,South,180,0.0,0.0,69,0.00,,,0.00,weatherlink.com 1.10,2013-10-03 16:38:00,
2013-10-03 11:53:00,83.9,73.0,29.82,SSE,165,0.0,0.0,69,0.00,,,0.00,weatherlink.com 1.10,2013-10-03 16:53:00,
2013-10-03 12:08:00,84.4,72.0,29.81,South,182,0.0,0.0,67,0.00,,,0.00,weatherlink.com 1.10,2013-10-03 17:08:00,
2013-10-03 12:23:00,85.3,72.0,29.81,SSE,168,0.0,0.0,65,0.00,,,0.00,weatherlink.com 1.10,2013-10-03 17:23:00,
2013-10-03 12:38:00,85.9,72.0,29.80,SSW,201,0.0,0.0,63,0.00,,,0.00,weatherlink.com 1.10,2013-10-03 17:38:00,
2013-10-03 12:53:00,86.5,72.0,29.80,SSE,167,0.0,0.0,62,0.00,,,0.00,weatherlink.com 1.10,2013-10-03 17:53:00,
2013-10-03 13:08:00,86.9,71.0,29.79,SSE,148,0.0,0.0,59,0.00,,,0.00,weatherlink.com 1.10,2013-10-03 18:08:00,
2013-10-03 13:23:00,87.3,71.0,29.79,SSW,208,0.0,0.0,58,0.00,,,0.00,weatherlink.com 1.10,2013-10-03 18:23:00,
2013-10-03 13:38:00,87.5,71.0,29.77,SE,140,0.0,0.0,58,0.00,,,0.00,weatherlink.com 1.10,2013-10-03 18:38:00,
2013-10-03 13:53:00,87.9,71.0,29.77,SSW,202,0.0,0.0,57,0.00,,,0.00,weatherlink.com 1.10,2013-10-03 18:53:00,
2013-10-03 14:08:00,88.2,70.0,29.76,SE,145,0.0,0.0,55,0.00,,,0.00,weatherlink.com 1.10,2013-10-03 19:08:00,
2013-10-03 14:23:00,88.1,70.0,29.76,SSW,196,0.0,0.0,56,0.00,,,0.00,weatherlink.com 1.10,2013-10-03 19:23:00,
2013-10-03 14:38:00,89.2,71.0,29.75,SSE,165,0.0,0.0,55,0.00,,,0.00,weatherlink.com 1.10,2013-10-03 19:38:00,
2013-10-03 14:53:00,89.1,71.0,29.75,SSE,168,0.0,0.0,55,0.00,,,0.00,weatherlink.com 1.10,2013-10-03 19:53:00,
2013-10-03 15:08:00,89.2,70.0,29.74,SE,145,0.0,0.0,53,0.00,,,0.00,weatherlink.com 1.10,2013-10-03 20:08:00,
2013-10-03 15:23:00,88.8,69.0,29.74,SSW,210,0.0,0.0,53,0.00,,,0.00,weatherlink.com 1.10,2013-10-03 20:23:00,
2013-10-03 15:39:00,88.8,69.0,29.73,SSE,163,0.0,0.0,53,0.00,,,0.00,weatherlink.com 1.10,2013-10-03 20:39:00,
2013-10-03 15:54:00,88.6,70.0,29.73,South,184,0.0,0.0,54,0.00,,,0.00,weatherlink.com 1.10,2013-10-03 20:54:00,
2013-10-03 16:09:00,88.6,70.0,29.72,SE,133,0.0,0.0,55,0.00,,,0.00,weatherlink.com 1.10,2013-10-03 21:09:00,
2013-10-03 16:24:00,87.9,70.0,29.72,SE,142,0.0,0.0,55,0.00,,,0.00,weatherlink.com 1.10,2013-10-03 21:24:00,
2013-10-03 16:39:00,87.8,70.0,29.71,SE,138,0.0,0.0,55,0.00,,,0.00,weatherlink.com 1.10,2013-10-03 21:39:00,
2013-10-03 16:54:00,87.7,70.0,29.71,SE,130,0.0,0.0,55,0.00,,,0.00,weatherlink.com 1.10,2013-10-03 21:54:00,
2013-10-03 17:09:00,87.5,69.0,29.71,SSW,208,0.0,0.0,55,0.00,,,0.00,weatherlink.com 1.10,2013-10-03 22:09:00,
2013-10-03 17:24:00,87.4,69.0,29.71,SSE,150,0.0,0.0,55,0.00,,,0.00,weatherlink.com 1.10,2013-10-03 22:24:00,
2013-10-03 17:39:00,87.1,69.0,29.71,SE,142,0.0,0.0,55,0.00,,,0.00,weatherlink.com 1.10,2013-10-03 22:39:00,
2013-10-03 17:54:00,87.0,69.0,29.71,SSE,167,0.0,0.0,55,0.00,,,0.00,weatherlink.com 1.10,2013-10-03 22:54:00,
2013-10-03 18:09:00,86.8,69.0,29.71,South,169,0.0,0.0,55,0.00,,,0.00,weatherlink.com 1.10,2013-10-03 23:09:00,
2013-10-03 18:24:00,86.4,69.0,29.71,South,169,0.0,0.0,56,0.00,,,0.00,weatherlink.com 1.10,2013-10-03 23:24:00,
2013-10-03 18:39:00,86.0,69.0,29.71,SSE,156,0.0,0.0,57,0.00,,,0.00,weatherlink.com 1.10,2013-10-03 23:39:00,
2013-10-03 18:54:00,85.2,69.0,29.71,SE,141,0.0,0.0,58,0.00,,,0.00,weatherlink.com 1.10,2013-10-03 23:54:00,
2013-10-03 19:09:00,84.5,69.0,29.71,SSW,197,0.0,0.0,59,0.00,,,0.00,weatherlink.com 1.10,2013-10-04 00:09:00,
2013-10-03 19:24:00,83.9,68.0,29.72,SE,143,0.0,0.0,60,0.00,,,0.00,weatherlink.com 1.10,2013-10-04 00:24:00,
2013-10-03 19:39:00,83.3,68.0,29.72,SSE,150,0.0,0.0,61,0.00,,,0.00,weatherlink.com 1.10,2013-10-04 00:39:00,
2013-10-03 19:54:00,83.0,68.0,29.72,SSE,157,0.0,0.0,61,0.00,,,0.00,weatherlink.com 1.10,2013-10-04 00:54:00,
2013-10-03 20:09:00,82.7,68.0,29.72,SSE,150,0.0,0.0,62,0.00,,,0.00,weatherlink.com 1.10,2013-10-04 01:09:00,
2013-10-03 20:24:00,82.5,68.0,29.71,SE,132,0.0,0.0,62,0.00,,,0.00,weatherlink.com 1.10,2013-10-04 01:24:00,
2013-10-03 20:39:00,81.9,69.0,29.72,SE,146,0.0,0.0,64,0.00,,,0.00,weatherlink.com 1.10,2013-10-04 01:39:00,
2013-10-03 20:54:00,81.6,69.0,29.73,SE,132,0.0,0.0,65,0.00,,,0.00,weatherlink.com 1.10,2013-10-04 01:54:00,
2013-10-03 21:09:00,81.4,69.0,29.73,SE,138,0.0,0.0,65,0.00,,,0.00,weatherlink.com 1.10,2013-10-04 02:09:00,
2013-10-03 21:24:00,81.2,69.0,29.74,SE,126,0.0,0.0,66,0.00,,,0.00,weatherlink.com 1.10,2013-10-04 02:24:00,
2013-10-03 21:39:00,80.8,68.0,29.75,SE,144,0.0,0.0,66,0.00,,,0.00,weatherlink.com 1.10,2013-10-04 02:39:00,
2013-10-03 21:54:00,79.7,68.0,29.75,SE,136,0.0,0.0,68,0.00,,,0.00,weatherlink.com 1.10,2013-10-04 02:54:00,
2013-10-03 22:09:00,79.3,69.0,29.75,SSE,150,0.0,0.0,70,0.00,,,0.00,weatherlink.com 1.10,2013-10-04 03:09:00,
2013-10-03 22:24:00,79.1,69.0,29.76,SSE,155,0.0,0.0,71,0.00,,,0.00,weatherlink.com 1.10,2013-10-04 03:24:00,
2013-10-03 22:39:00,78.8,69.0,29.76,SSE,155,0.0,0.0,72,0.00,,,0.00,weatherlink.com 1.10,2013-10-04 03:39:00,
2013-10-03 22:54:00,78.6,69.0,29.76,SSE,166,0.0,0.0,73,0.00,,,0.00,weatherlink.com 1.10,2013-10-04 03:54:00,
2013-10-03 23:39:00,78.2,70.0,29.76,SE,134,0.0,0.0,76,0.00,,,0.00,weatherlink.com 1.10,2013-10-04 04:39:00,
2013-10-03 23:54:00,78.2,70.0,29.76,SSE,158,0.0,0.0,76,0.00,,,0.00,weatherlink.com 1.10,2013-10-04 04:54:00,